TimeEST,TemperatureF,Dew PointF,Humidity,Sea Level PressureIn,VisibilityMPH,Wind Direction,Wind SpeedMPH,Gust SpeedMPH,PrecipitationIn,Events,Conditions,WindDirDegrees,DateUTC
12:52 AM,57.9,53.1,84,29.92,10.0,South,10.4,18.4,N/A,,Mostly Cloudy,190,2012-12-05 05:52:00
1:12 AM,57.2,51.8,82,29.91,10.0,SSE,5.8,-,N/A,,Partly Cloudy,160,2012-12-05 06:12:00
1:52 AM,57.0,52.0,83,29.90,10.0,SSE,6.9,-,N/A,,Clear,160,2012-12-05 06:52:00
2:52 AM,57.9,52.0,81,29.87,10.0,South,9.2,-,N/A,,Mostly Cloudy,190,2012-12-05 07:52:00
3:52 AM,57.0,52.0,83,29.84,10.0,SSW,6.9,-,0.00,Rain,Light Rain,210,2012-12-05 08:52:00
4:30 AM,57.2,51.8,82,29.85,9.0,SW,4.6,-,0.00,Rain,Light Rain,220,2012-12-05 09:30:00
4:52 AM,57.0,52.0,83,29.86,10.0,West,13.8,25.3,0.01,,Overcast,280,2012-12-05 09:52:00
5:05 AM,55.4,48.2,77,29.86,10.0,NW,11.5,25.3,N/A,,Overcast,310,2012-12-05 10:05:00
5:52 AM,55.0,46.9,74,29.89,10.0,West,10.4,-,0.00,Rain,Light Rain,280,2012-12-05 10:52:00
6:52 AM,52.0,44.1,74,29.89,10.0,WNW,15.0,21.9,0.00,,Overcast,300,2012-12-05 11:52:00
7:52 AM,51.1,42.1,71,29.91,10.0,WNW,9.2,18.4,N/A,,Overcast,290,2012-12-05 12:52:00
9:52 AM,51.1,36.0,56,29.94,10.0,West,17.3,21.9,N/A,,Clear,280,2012-12-05 14:52:00
10:52 AM,52.0,36.0,54,29.93,10.0,WNW,16.1,28.8,N/A,,Partly Cloudy,290,2012-12-05 15:52:00
11:52 AM,52.0,34.0,50,29.92,10.0,WNW,15.0,23.0,N/A,,Scattered Clouds,300,2012-12-05 16:52:00
12:52 PM,52.0,30.9,45,29.92,10.0,West,20.7,28.8,N/A,,Partly Cloudy,280,2012-12-05 17:52:00
1:52 PM,51.1,30.9,46,29.92,10.0,West,15.0,28.8,N/A,,Mostly Cloudy,280,2012-12-05 18:52:00
2:52 PM,46.9,28.0,48,29.95,10.0,WNW,19.6,28.8,N/A,,Clear,290,2012-12-05 19:52:00
3:52 PM,44.1,26.1,49,29.99,10.0,WNW,13.8,20.7,N/A,,Mostly Cloudy,300,2012-12-05 20:52:00
4:52 PM,42.1,25.0,51,30.02,10.0,WNW,13.8,23.0,N/A,,Overcast,300,2012-12-05 21:52:00
5:52 PM,39.9,21.0,47,30.04,10.0,NW,13.8,21.9,N/A,,Overcast,310,2012-12-05 22:52:00
6:52 PM,39.0,19.9,46,30.06,10.0,NW,16.1,29.9,N/A,,Overcast,310,2012-12-05 23:52:00
7:52 PM,37.9,18.0,45,30.09,10.0,NW,13.8,23.0,N/A,,Overcast,320,2012-12-06 00:52:00
8:52 PM,36.0,19.0,50,30.10,10.0,NW,13.8,29.9,N/A,,Overcast,310,2012-12-06 01:52:00
9:52 PM,35.1,17.1,48,30.13,10.0,NW,16.1,31.1,N/A,,Overcast,310,2012-12-06 02:52:00
10:52 PM,34.0,15.1,46,30.14,10.0,NW,15.0,21.9,N/A,,Overcast,310,2012-12-06 03:52:00
11:52 PM,32.0,12.9,45,30.16,10.0,WNW,16.1,23.0,N/A,,Clear,300,2012-12-06 04:52:00